• In Denmark
  • List of Countries
  • For 7 days
  • Water Temperature
  • Satellite Maps
  • Weather Map
  • Weather Widgets
  • user-avatar
    Login

    Hourly Weather Manaus

    Today, 15 October, Monday

    Time Temperature Precipitation Wind Pressure Humidity
    00:00 +27°C° 0 mm 0 mps 754 mmHg 64%
    01:00 +26°C° 0 mm 0 mps 754 mmHg 65%
    02:00 +26°C° 0 mm 0 mps 753 mmHg 66%
    03:00 +26°C° 0 mm 0 mps 753 mmHg 68%
    04:00 +25°C° 0 mm 0 mps 753 mmHg 69%
    05:00 +25°C° 0 mm 0 mps 753 mmHg 71%
    06:00 +27°C° 0 mm 0 mps 754 mmHg 64%
    07:00 +31°C° 0 mm 1 mps 754 mmHg 56%
    08:00 +33°C° 0 mm 1 mps 754 mmHg 49%
    09:00 +36°C° 0 mm 1 mps 754 mmHg 42%
    10:00 +39°C° 0 mm 1 mps 754 mmHg 35%
    11:00 +42°C° 0 mm 1 mps 754 mmHg 27%
    12:00 +42°C° 0 mm 1 mps 753 mmHg 26%
    13:00 +43°C° 0 mm 1 mps 752 mmHg 25%
    14:00 +43°C° 0 mm 1 mps 751 mmHg 23%
    15:00 +42°C° 0 mm 1 mps 751 mmHg 25%
    16:00 +41°C° 0 mm 1 mps 750 mmHg 27%
    17:00 +40°C° 0 mm 1 mps 750 mmHg 29%
    18:00 +37°C° 0 mm 1 mps 750 mmHg 33%
    19:00 +35°C° 0 mm 1 mps 751 mmHg 37%
    20:00 +33°C° 0 mm 1 mps 751 mmHg 41%
    21:00 +32°C° 0 mm 1 mps 751 mmHg 42%
    22:00 +32°C° 0 mm 1 mps 752 mmHg 43%
    23:00 +32°C° 0 mm 1 mps 752 mmHg 44%

    Tomorrow, 16 October, Tuesday

    Time Temperature Precipitation Wind Pressure Humidity
    00:00 +31°C° 0 mm 1 mps 752 mmHg 45%
    01:00 +29°C° 0 mm 0 mps 751 mmHg 47%
    02:00 +28°C° 0 mm 0 mps 751 mmHg 49%
    03:00 +28°C° 0 mm 0 mps 751 mmHg 50%
    04:00 +28°C° 0 mm 0 mps 751 mmHg 51%
    05:00 +27°C° 0 mm 0 mps 752 mmHg 52%
    06:00 +28°C° 0 mm 0 mps 752 mmHg 50%
    07:00 +30°C° 0 mm 0 mps 753 mmHg 48%
    08:00 +31°C° 0 mm 0 mps 754 mmHg 46%
    09:00 +33°C° 0 mm 0 mps 754 mmHg 42%
    10:00 +36°C° 0 mm 1 mps 754 mmHg 38%
    11:00 +39°C° 0 mm 1 mps 753 mmHg 34%
    12:00 +40°C° 0 mm 1 mps 752 mmHg 31%
    13:00 +42°C° 0 mm 1 mps 751 mmHg 28%
    14:00 +43°C° 0 mm 1 mps 750 mmHg 24%
    15:00 +42°C° 0 mm 1 mps 750 mmHg 27%
    16:00 +40°C° 0 mm 1 mps 750 mmHg 29%
    17:00 +39°C° 0 mm 1 mps 749 mmHg 31%
    18:00 +36°C° 0 mm 1 mps 750 mmHg 35%
    19:00 +34°C° 0 mm 1 mps 750 mmHg 39%
    20:00 +33°C° 0 mm 1 mps 751 mmHg 42%
    21:00 +30°C° 0 mm 0 mps 751 mmHg 45%
    22:00 +29°C° 0 mm 0 mps 751 mmHg 47%
    23:00 +28°C° 0 mm 0 mps 751 mmHg 49%

    Day after tomorrow, 17 October, Wednesday

    Time Temperature Precipitation Wind Pressure Humidity
    00:00 +28°C° 0 mm 0 mps 751 mmHg 50%
    01:00 +27°C° 0 mm 0 mps 750 mmHg 52%
    02:00 +27°C° 0 mm 0 mps 750 mmHg 53%
    03:00 +27°C° 0 mm 0 mps 750 mmHg 54%
    04:00 +26°C° 0 mm 0 mps 750 mmHg 56%
    05:00 +28°C° 0 mm 1 mps 751 mmHg 57%
    06:00 +30°C° 0 mm 1 mps 752 mmHg 53%
    07:00 +32°C° 0 mm 1 mps 752 mmHg 49%
    08:00 +33°C° 0 mm 1 mps 753 mmHg 45%
    09:00 +36°C° 0 mm 1 mps 753 mmHg 40%
    10:00 +39°C° 0 mm 1 mps 753 mmHg 35%
    11:00 +41°C° 0 mm 1 mps 753 mmHg 30%
    12:00 +41°C° 0 mm 1 mps 752 mmHg 30%
    13:00 +41°C° 0 mm 1 mps 751 mmHg 30%
    14:00 +40°C° 0 mm 1 mps 750 mmHg 31%
    15:00 +40°C° 0 mm 1 mps 750 mmHg 33%
    16:00 +39°C° 0 mm 1 mps 749 mmHg 34%
    17:00 +39°C° 0 mm 1 mps 749 mmHg 36%
    18:00 +36°C° 0 mm 1 mps 750 mmHg 41%
    19:00 +34°C° 0 mm 1 mps 750 mmHg 45%
    20:00 +32°C° 0 mm 1 mps 751 mmHg 50%
    21:00 +32°C° 0 mm 1 mps 751 mmHg 52%
    22:00 +31°C° 0 mm 1 mps 751 mmHg 54%
    23:00 +29°C° 0 mm 0 mps 751 mmHg 56%

    18 October, Thursday

    Time Temperature Precipitation Wind Pressure Humidity
    00:00 +28°C° 0 mm 0 mps 750 mmHg 57%
    01:00 +28°C° 0 mm 0 mps 750 mmHg 58%
    02:00 +28°C° 0 mm 0 mps 749 mmHg 59%
    03:00 +27°C° 0 mm 0 mps 750 mmHg 61%
    04:00 +27°C° 0 mm 0 mps 750 mmHg 62%
    05:00 +29°C° 0 mm 1 mps 750 mmHg 64%
    06:00 +31°C° 0 mm 1 mps 751 mmHg 58%
    07:00 +33°C° 0 mm 1 mps 752 mmHg 52%
    08:00 +35°C° 0 mm 1 mps 752 mmHg 46%
    09:00 +38°C° 0 mm 2 mps 752 mmHg 40%
    10:00 +40°C° 0 mm 2 mps 752 mmHg 35%
    11:00 +42°C° 0 mm 2 mps 752 mmHg 29%
    12:00 +41°C° 0 mm 2 mps 751 mmHg 30%
    13:00 +41°C° 0 mm 2 mps 750 mmHg 32%
    14:00 +40°C° 0 mm 2 mps 749 mmHg 34%
    15:00 +40°C° 0 mm 2 mps 749 mmHg 36%
    16:00 +39°C° 0 mm 1 mps 749 mmHg 38%
    17:00 +37°C° 0 mm 1 mps 749 mmHg 40%
    18:00 +35°C° 0 mm 1 mps 749 mmHg 44%
    19:00 +34°C° 0 mm 1 mps 750 mmHg 48%
    20:00 +32°C° 0 mm 1 mps 750 mmHg 52%
    21:00 +32°C° 0 mm 1 mps 750 mmHg 55%
    22:00 +31°C° 0 mm 1 mps 750 mmHg 58%
    23:00 +30°C° 0 mm 1 mps 751 mmHg 60%

    19 October, Friday

    Time Temperature Precipitation Wind Pressure Humidity
    00:00 +30°C° 0.1 mm 1 mps 750 mmHg 65%
    01:00 +29°C° 0.1 mm 2 mps 750 mmHg 69%
    02:00 +29°C° 0.1 mm 2 mps 750 mmHg 73%
    03:00 +28°C° 0 mm 2 mps 750 mmHg 76%
    04:00 +28°C° 0 mm 1 mps 751 mmHg 78%
    05:00 +27°C° 0 mm 1 mps 751 mmHg 81%
    06:00 +29°C° 0.1 mm 1 mps 751 mmHg 74%
    07:00 +30°C° 0.1 mm 1 mps 752 mmHg 67%
    08:00 +32°C° 0.1 mm 1 mps 753 mmHg 60%
    09:00 +34°C° 0 mm 1 mps 753 mmHg 50%
    10:00 +37°C° 0 mm 1 mps 752 mmHg 40%
    11:00 +41°C° 0 mm 1 mps 752 mmHg 30%
    12:00 +40°C° 0 mm 1 mps 751 mmHg 31%
    13:00 +40°C° 0 mm 2 mps 750 mmHg 33%
    14:00 +39°C° 0 mm 2 mps 749 mmHg 34%
    15:00 +37°C° 0 mm 1 mps 749 mmHg 35%
    16:00 +37°C° 0 mm 1 mps 749 mmHg 37%
    17:00 +37°C° 0 mm 1 mps 749 mmHg 39%
    18:00 +35°C° 0.1 mm 1 mps 750 mmHg 45%
    19:00 +33°C° 0.1 mm 1 mps 750 mmHg 51%
    20:00 +31°C° 0.1 mm 1 mps 750 mmHg 57%
    21:00 +30°C° 0 mm 1 mps 750 mmHg 61%
    22:00 +29°C° 0 mm 1 mps 751 mmHg 65%
    23:00 +29°C° 0 mm 1 mps 751 mmHg 70%

    20 October, Saturday

    Time Temperature Precipitation Wind Pressure Humidity
    00:00 +28°C° 0.2 mm 1 mps 750 mmHg 72%
    01:00 +25°C° 0.2 mm 0 mps 750 mmHg 75%
    02:00 +25°C° 0.2 mm 0 mps 749 mmHg 77%
    03:00 +27°C° 0.1 mm 1 mps 750 mmHg 79%
    04:00 +26°C° 0.1 mm 1 mps 750 mmHg 81%
    05:00 +26°C° 0.1 mm 1 mps 750 mmHg 83%
    06:00 +28°C° 0.2 mm 1 mps 751 mmHg 76%
    07:00 +30°C° 0.2 mm 1 mps 752 mmHg 69%
    08:00 +30°C° 0.2 mm 0 mps 752 mmHg 62%
    09:00 +34°C° 0 mm 0 mps 752 mmHg 51%
    10:00 +37°C° 0 mm 0 mps 752 mmHg 41%
    11:00 +41°C° 0 mm 0 mps 751 mmHg 30%
    12:00 +39°C° 0 mm 0 mps 750 mmHg 32%
    13:00 +38°C° 0 mm 0 mps 749 mmHg 34%
    14:00 +39°C° 0 mm 1 mps 749 mmHg 36%
    15:00 +37°C° 0 mm 1 mps 749 mmHg 40%
    16:00 +36°C° 0 mm 1 mps 749 mmHg 43%
    17:00 +35°C° 0 mm 1 mps 749 mmHg 47%
    18:00 +33°C° 0.4 mm 1 mps 749 mmHg 55%
    19:00 +32°C° 0.4 mm 1 mps 750 mmHg 63%
    20:00 +30°C° 0.4 mm 1 mps 750 mmHg 71%
    21:00 +29°C° 0.2 mm 1 mps 750 mmHg 75%
    22:00 +29°C° 0.2 mm 1 mps 750 mmHg 78%
    23:00 +28°C° 0.2 mm 1 mps 750 mmHg 82%
    Show more